Find Skylink-1

NORAD ID: 62693 Int'l Des: NNA 2025-009 Owner: HELLO Country: TR decayed
LEOCIRCULARRETROGRADE

Historical Track — May 8, 2026

正在加载3D地球...

关于 Skylink-1

正在加载描述...

高度历史

Loading altitude history...

两行轨道根数

1 62693U 25009CN 26125.99287395 .02225938 53566-2 22725-2 0 9998
2 62693 97.3933 219.8957 0014769 269.6542 90.3050 16.11961825130836
Epoch: May 5, 2026 • Age: 148 hours

当前状态

Position data unavailable
发射日期 Jan 14, 2025
运行时间 1.3 years
衰减日期 May 8, 2026
类型 other

技术详情

分类 Payload
质量 0.75 kg
干质量 0.75 kg
总质量 0.75 kg
长度 0.15 m
直径 0.05 m
跨度 0.35 m
形状 Box+ 2 pan
制造商 HELLO
平台类型 PocketQube 3P
阶段状态 In Orbit
所有者/国家 HELLO/TR

Most Searched